Home   Weather   Bambari   Past weeks

Flag for Central African Republic Past Weather in Bambari, Central African Republic — Yesterday and Last 2 Weeks

Now
88 °F

Passing clouds.


Feels Like: 98 °F
Forecast: 71 / 86 °F
Wind: 2 mph from North

Location: Bangui Airport

Current Time: Apr 23, 2017 at 11:04:41 am

Latest Report: Apr 23, 2017 at 10:00 am


Visibility: N/A

Pressure: 29.92 "Hg

Humidity: 66%

Dew Point: 75 °F

Location of BambariLocation

Past Weather in Bambari — Graph

°F

Bambari Temperature Yesterday

Maximum temperature yesterday: 86 °F (at 3:00 pm)
Minimum temperature yesterday: 75 °F (at 3:00 am)
Average temperature yesterday: 78 °F

High & Low Weather Summary for the Past Weeks

 TemperatureHumidityPressure
High102 °F (Apr 17, 10:00 am)100% (Apr 11, 12:00 am)29.95 "Hg (Apr 11, 12:00 am)
Low72 °F (Apr 10, 3:00 am)42% (Apr 17, 10:00 am)29.62 "Hg (Apr 11, 3:00 pm)
Average81 °F82%29.81 "Hg
* Reported Apr 8 9:00 am — Apr 23 9:00 am, Bambari, Weather by CustomWeather, © 2017

Note: Actual official high and low records may vary slightly from our data, if they occured in-between our weather recording intervals... More about our weather records

Advertising

Bambari Weather History for the Previous 24 Hours

Scroll right to see more
 ConditionsComfort  
Time TempWeatherWind HumidityBarometerVisibility
9:00 am
Sun, Apr 23
84 °FPassing clouds.2 mph70%29.92 "HgN/A
8:00 am79 °FSunny.2 mph84%29.92 "Hg10 mi
7:00 am77 °FSunny.2 mph89%29.89 "Hg10 mi
6:00 am75 °FSunny.3 mph94%29.89 "Hg10 mi
5:00 am77 °FClear.5 mph83%29.89 "Hg10 mi
4:00 am75 °FClear.5 mph94%29.86 "Hg10 mi
3:00 am75 °FClear.7 mph94%29.86 "Hg10 mi
2:00 am77 °FClear.2 mph89%29.86 "Hg10 mi
1:00 am77 °FClear.3 mph94%29.86 "Hg10 mi
12:00 am77 °FClear.No wind94%29.89 "Hg10 mi
11:00 pm
Sat, Apr 22
77 °FWarm.N/A94%29.89 "HgN/A
10:00 pm75 °FPassing clouds.2 mph94%29.86 "HgN/A
9:00 pm77 °FPassing clouds.2 mph94%29.83 "HgN/A
8:00 pm77 °FPassing clouds.2 mph94%29.77 "HgN/A
7:00 pm79 °FPassing clouds.2 mph89%29.74 "HgN/A
6:00 pm81 °FPassing clouds.2 mph79%29.74 "HgN/A
5:00 pm84 °FPassing clouds.7 mph70%29.74 "HgN/A
4:00 pm84 °FPassing clouds.12 mph70%29.74 "HgN/A
3:00 pm86 °FPassing clouds.9 mph66%29.77 "HgN/A
2:00 pm84 °FPassing clouds.7 mph74%29.83 "HgN/A
12:00 pm81 °FThunderstorms. Scattered clouds.7 mph84%29.89 "HgN/A
11:00 am77 °FThunderstorms. Partly sunny.5 mph89%29.95 "Hg4 mi
Weather by CustomWeather, © 2017

See weather overviewHow to use our weather pages